Lakeville, MN

8:20 PM CST on January 20, 2017 (GMT -0600)
Airlake

Weather History for KLVN - September, 2012

Change the Weather History Date:

Sunday, September 23, 2012

  Actual Average Record
Temperature  
Mean Temperature 42 °F -  
Max Temperature 57 °F 64 °F 84 °F (2007)
Min Temperature 28 °F 41 °F 25 °F (1983)
Degree Days  
Heating Degree Days 22    
Moisture  
Dew Point 30 °F    
Average Humidity 63    
Maximum Humidity 100    
Minimum Humidity 33    
Precipitation  
Precipitation 0.00 in - - ()
Sea Level Pressure  
Sea Level Pressure 30.25 in    
Wind  
Wind Speed 5 mph (West)    
Max Wind Speed 14 mph    
Max Gust Speed 23 mph    
Visibility 10 miles    
Events      
Averages and records for this station are not official NWS values.
T = Trace of Precipitation, MM = Missing Value Source: NWS Daily Summary

Daily Weather History Graph

Daily Weather History Graph

Search for Another Location

Airport or City:

Trip Planner

Search our weather history database for the weather conditions in past years. The results will help you decide how hot, cold, wet, or windy it might be!

Date:

Astronomy

Sep. 23, 2012 Rise Set
Actual Time 7:01 AM CDT 7:07 PM CDT
Civil Twilight 6:32 AM CDT 7:36 PM CDT
Nautical Twilight 5:58 AM CDT 8:10 PM CDT
Astronomical Twilight 5:23 AM CDT 8:45 PM CDT
Moon 3:21 PM CDT (9/23) 12:00 AM CDT (9/23)
Length of Visible Light 13h 03m
Length of Day
12h 05m
First Quarter, 60% of the Moon is Illuminated
Sep 23
First Quarter
Sep 29
Full
Oct 8
Last Quarter
Oct 15
New
Oct 21
First Quarter

Hourly Weather History & Observations

Time (CDT) Temp. Windchill Dew Point Humidity Pressure Visibility Wind Dir Wind Speed Gust Speed Precip Events Conditions
12:14 AM 37.4 °F 33.8 °F 32.0 °F 81% 30.25 in 10.0 mi West 4.6 mph - N/A   Clear
12:33 AM 37.4 °F 33.8 °F 32.0 °F 81% 30.25 in 10.0 mi West 4.6 mph - N/A   Clear
12:54 AM 37.4 °F 34.9 °F 32.0 °F 81% 30.25 in 10.0 mi West 3.5 mph - N/A   Clear
1:14 AM 37.4 °F 34.9 °F 32.0 °F 81% 30.25 in 10.0 mi West 3.5 mph - N/A   Clear
1:33 AM 33.8 °F 30.8 °F 30.2 °F 87% 30.25 in 10.0 mi West 3.5 mph - N/A   Clear
1:54 AM 33.8 °F 30.8 °F 30.2 °F 87% 30.26 in 10.0 mi West 3.5 mph - N/A   Clear
2:14 AM 32.0 °F 28.7 °F 30.2 °F 93% 30.26 in 10.0 mi West 3.5 mph - N/A   Clear
2:33 AM 32.0 °F - 30.2 °F 93% 30.26 in 10.0 mi Calm Calm - N/A   Clear
2:54 AM 33.8 °F 29.6 °F 30.2 °F 87% 30.27 in 10.0 mi West 4.6 mph - N/A   Clear
3:14 AM 35.6 °F 31.7 °F 30.2 °F 81% 30.27 in 10.0 mi West 4.6 mph - N/A   Clear
3:33 AM 35.6 °F 31.7 °F 32.0 °F 87% 30.26 in 10.0 mi West 4.6 mph - N/A   Clear
3:54 AM 33.8 °F - 30.2 °F 87% 30.26 in 10.0 mi Calm Calm - N/A   Clear
4:14 AM 32.0 °F - 30.2 °F 93% 30.26 in 10.0 mi Calm Calm - N/A   Clear
4:34 AM 33.8 °F 30.8 °F 30.2 °F 87% 30.27 in 10.0 mi West 3.5 mph - N/A   Clear
4:54 AM 32.0 °F - 30.2 °F 93% 30.27 in 10.0 mi Calm Calm - N/A   Clear
5:14 AM 30.2 °F - 30.2 °F 100% 30.27 in 10.0 mi Calm Calm - N/A   Clear
5:34 AM 32.0 °F 28.7 °F 30.2 °F 93% 30.27 in 10.0 mi West 3.5 mph - N/A   Clear
5:53 AM 32.0 °F 28.7 °F 30.2 °F 93% 30.27 in 10.0 mi West 3.5 mph - N/A   Clear
6:14 AM 32.0 °F 28.7 °F 30.2 °F 93% 30.28 in 10.0 mi WSW 3.5 mph - N/A   Clear
6:34 AM 32.0 °F 27.5 °F 30.2 °F 93% 30.28 in 10.0 mi West 4.6 mph - N/A   Clear
6:54 AM 32.0 °F - 30.2 °F 93% 30.28 in 10.0 mi Calm Calm - N/A   Clear
7:14 AM 28.4 °F 24.6 °F 28.4 °F 100% 30.29 in 10.0 mi West 3.5 mph - N/A   Clear
7:34 AM 30.2 °F - 30.2 °F 100% 30.29 in 10.0 mi Calm Calm - N/A   Clear
7:54 AM 33.8 °F - 30.2 °F 87% 30.29 in 10.0 mi Calm Calm - N/A   Clear
8:14 AM 37.4 °F - 33.8 °F 87% 30.30 in 10.0 mi Calm Calm - N/A   Clear
8:34 AM 39.2 °F 37.0 °F 33.8 °F 81% 30.30 in 10.0 mi West 3.5 mph - N/A   Unknown
8:54 AM 41.0 °F 38.0 °F 35.6 °F 81% 30.30 in 10.0 mi West 4.6 mph - N/A   Unknown
9:14 AM 42.8 °F 39.3 °F 33.8 °F 70% 30.31 in 10.0 mi West 5.8 mph - N/A   Clear
9:34 AM 46.4 °F 42.9 °F 33.8 °F 62% 30.31 in 10.0 mi NNW 6.9 mph - N/A   Unknown
9:54 AM 46.4 °F 42.4 °F 32.0 °F 57% 30.31 in 10.0 mi NW 8.1 mph - N/A   Unknown
10:14 AM 48.2 °F - 33.8 °F 58% 30.31 in 10.0 mi WNW 5.8 mph - N/A   Unknown
10:34 AM 50.0 °F - 30.2 °F 47% 30.31 in 10.0 mi WNW 9.2 mph - N/A   Unknown
10:54 AM 51.8 °F - 30.2 °F 44% 30.31 in 10.0 mi NNW 11.5 mph 16.1 mph N/A   Clear
11:14 AM 51.8 °F - 30.2 °F 44% 30.31 in 10.0 mi NNW 11.5 mph 18.4 mph N/A   Clear
11:34 AM 51.8 °F - 30.2 °F 44% 30.30 in 10.0 mi NNW 13.8 mph 20.7 mph N/A   Scattered Clouds
11:54 AM 53.6 °F - 28.4 °F 38% 30.30 in 10.0 mi NW 10.4 mph 18.4 mph N/A   Scattered Clouds
12:14 PM 53.6 °F - 30.2 °F 41% 30.30 in 10.0 mi NW 12.7 mph 18.4 mph N/A   Scattered Clouds
12:34 PM 53.6 °F - 30.2 °F 41% 30.30 in 10.0 mi WNW 8.1 mph - N/A   Scattered Clouds
12:54 PM 55.4 °F - 30.2 °F 38% 30.30 in 10.0 mi NNW 10.4 mph 16.1 mph N/A   Scattered Clouds
1:14 PM 53.6 °F - 30.2 °F 41% 30.29 in 10.0 mi WNW 11.5 mph - N/A   Unknown
1:34 PM 55.4 °F - 30.2 °F 38% 30.29 in 10.0 mi NNW 11.5 mph - N/A   Unknown
1:54 PM 55.4 °F - 28.4 °F 36% 30.28 in 10.0 mi NNW 6.9 mph 17.3 mph N/A   Clear
2:14 PM 55.4 °F - 28.4 °F 36% 30.27 in 10.0 mi WNW 9.2 mph 23.0 mph N/A   Clear
2:34 PM 55.4 °F - 28.4 °F 36% 30.27 in 10.0 mi NW 8.1 mph 19.6 mph N/A   Clear
2:54 PM 55.4 °F - 30.2 °F 38% 30.26 in 10.0 mi West 12.7 mph 17.3 mph N/A   Clear
3:13 PM 57.2 °F - 30.2 °F 36% 30.25 in 10.0 mi WNW 8.1 mph 17.3 mph N/A   Clear
3:34 PM 57.2 °F - 28.4 °F 33% 30.25 in 10.0 mi West 11.5 mph - N/A   Clear
3:54 PM 57.2 °F - 28.4 °F 33% 30.24 in 10.0 mi WNW 5.8 mph 11.5 mph N/A   Clear
4:13 PM 57.2 °F - 28.4 °F 33% 30.23 in 10.0 mi NW 11.5 mph - N/A   Clear
4:34 PM 57.2 °F - 28.4 °F 33% 30.22 in 10.0 mi WNW 10.4 mph 17.3 mph N/A   Clear
4:54 PM 57.2 °F - 28.4 °F 33% 30.22 in 10.0 mi West 9.2 mph 16.1 mph N/A   Clear
5:13 PM 57.2 °F - 28.4 °F 33% 30.21 in 10.0 mi West 6.9 mph - N/A   Clear
5:34 PM 57.2 °F - 28.4 °F 33% 30.21 in 10.0 mi West 6.9 mph - N/A   Clear
5:54 PM 57.2 °F - 28.4 °F 33% 30.20 in 10.0 mi WNW 8.1 mph - N/A   Clear
6:13 PM 55.4 °F - 28.4 °F 36% 30.20 in 10.0 mi West 4.6 mph - N/A   Clear
6:34 PM 55.4 °F - 28.4 °F 36% 30.20 in 10.0 mi West 3.5 mph - N/A   Clear
6:54 PM 51.8 °F - 28.4 °F 41% 30.20 in 10.0 mi West 3.5 mph - N/A   Clear
7:14 PM 50.0 °F - 28.4 °F 43% 30.20 in 10.0 mi West 3.5 mph - N/A   Clear
7:33 PM 48.2 °F - 30.2 °F 50% 30.19 in 10.0 mi Calm Calm - N/A   Clear
7:54 PM 48.2 °F - 30.2 °F 50% 30.20 in 10.0 mi SW 3.5 mph - N/A   Clear
8:14 PM 46.4 °F 45.2 °F 30.2 °F 53% 30.20 in 10.0 mi SW 3.5 mph - N/A   Clear
8:33 PM 39.2 °F - 32.0 °F 75% 30.21 in 10.0 mi Calm Calm - N/A   Clear
8:54 PM 37.4 °F 33.8 °F 30.2 °F 75% 30.20 in 10.0 mi SW 4.6 mph - N/A   Clear
9:14 PM 44.6 °F 41.4 °F 30.2 °F 57% 30.20 in 7.0 mi SW 5.8 mph - N/A   Clear
9:33 PM 44.6 °F 40.7 °F 32.0 °F 61% 30.19 in 10.0 mi SW 6.9 mph - N/A   Clear
9:54 PM 44.6 °F 41.4 °F 32.0 °F 61% 30.19 in 10.0 mi SW 5.8 mph - N/A   Clear
10:14 PM 44.6 °F 41.4 °F 30.2 °F 57% 30.19 in 10.0 mi SW 5.8 mph - N/A   Clear
10:33 PM 42.8 °F 39.3 °F 30.2 °F 61% 30.18 in 10.0 mi SW 5.8 mph - N/A   Clear
10:54 PM 42.8 °F 40.1 °F 30.2 °F 61% 30.18 in 10.0 mi SW 4.6 mph - N/A   Clear
11:14 PM 42.8 °F 41.1 °F 30.2 °F 61% 30.18 in 10.0 mi SW 3.5 mph - N/A   Clear
11:34 PM 42.8 °F 40.1 °F 28.4 °F 57% 30.17 in 10.0 mi SW 4.6 mph - N/A   Clear
11:54 PM 42.8 °F 40.1 °F 28.4 °F 57% 30.17 in 10.0 mi SW 4.6 mph - N/A   Clear